{"data":{"norad_id":46562,"intl_designator":"2020-070AG","name":"STARLINK-1714","alt_names":[],"object_type":"PAYLOAD","status":"ACTIVE","operator":null,"country":"US","launch_date":"2020-10-06","launch_site_code":"AFETR","launch_vehicle":null,"mission":null,"orbit_class":"UNKNOWN","rcs_meters":null,"size_class":null,"mass_kg":null,"dimensions":null,"purposes":["comms"],"wikipedia_slug":null,"has_3d_model":false,"image_url":null,"decayed_at":null,"tle_current":{"epoch":"2026-05-25T02:58:09.692256Z","epoch_age_seconds":67642,"freshness":"FRESH","line1":"1 46562U 20070AG  26145.12372329  .00091596  00000+0  78463-3 0  9999","line2":"2 46562  53.0384 104.1362 0008533  53.0071 307.1725 15.68652374312288","mean_motion":15.68652374,"eccentricity":0.0008533,"inclination_deg":53.0384,"raan_deg":104.1362,"arg_perigee_deg":53.0071,"mean_anomaly_deg":307.1725,"bstar":0.00078463,"rev_number":31228,"period_min":91.798541465759,"perigee_km":357.00296841288,"apogee_km":368.5069746515,"semimajor_km":6740.8919715322,"source":"CELESTRAK","updated_at":"2026-05-25T13:38:16.511723Z"}}}